Location: Gro�wechsungen
(51.4926°N, 10.6901°E)
Time: 07:47:34
(UTC+00:00)

SPOT 3 Rocket - Pass Details

Date: 04 February 2021
Orbit: 780 x 794 km, 98.7° (Epoch: 24 February)

Event Time Altitude Azimuth Distance (km) Brightness Sun altitude
Exits shadow 17:28:41 11° 45° (NE) 2,305 5.5 -12.1°
Drops below altitude 10° 17:29:43 10° 33° (NNE) 2,353 5.6 -12.2°
Sets 17:34:10 0° 357° (N) 3,292 6.7 -12.9°
